This demonstration page uses our WeatherBlox Daily Observations layout. Learn more.

Left ArrowRight Arrow

41.86663, -103.66717

Hourly Observations for August 18, 2018

Temp ( °F °C ) Dew Point ( °F °C ) Humidity (%) Winds ( mph kmh ) Pressure ( in mb ) Visibility ( mi km ) Precip ( " mm )
12:53 am 00:53 Clear 66 18.9 58 14.4 75 75 SSE 6 9 30.03 1017 10 16 0.00 0.00
1:53 am 01:53 Clear 67 19.4 58 14.4 73 73 S 6 9 29.98 1015 10 16 0.00 0.00
2:53 am 02:53 Clear 63 17.2 59 15 87 87 E 7 11 29.97 1015 10 16 0.00 0.00
3:53 am 03:53 Clear 62 16.7 59 15 90 90 E 9 15 29.96 1015 10 16 0.00 0.00
4:53 am 04:53 Clear 60 15.6 59 15 96 96 E 5 7 29.95 1014 10 16 0.00 0.00
5:53 am 05:53 Clear 59 15 58 14.4 96 96 E 6 9 29.96 1014 10 16 0.00 0.00
6:53 am 06:53 Sunny 60 15.6 59 15 96 96 ESE 12 19 29.96 1015 10 16 0.00 0.00
7:53 am 07:53 Sunny 63 17.2 61 16.1 93 93 E 10 17 29.95 1014 10 16 0.00 0.00
8:53 am 08:53 Sunny 67 19.4 62 16.7 84 84 SE 7 11 29.96 1015 10 16 0.00 0.00
9:53 am 09:53 Sunny 71 21.7 63 17.2 76 76 E 3 6 29.96 1015 10 16 0.00 0.00
10:53 am 10:53 Sunny 78 25.6 65 18.3 64 64 ESE 9 15 29.95 1014 10 16 0.00 0.00
11:53 am 11:53 Sunny 83 28.3 61 16.1 48 48 W 8 13 29.93 1014 10 16 0.00 0.00
12:53 pm 12:53 Sunny 83 28.3 57 13.9 41 41 WNW 14 22 29.94 1014 10 16 0.00 0.00
1:53 pm 13:53 Cloudy 82 27.8 55 12.8 40 40 NNW 18 30 29.94 1014 10 16 0.00 0.00
2:53 pm 14:53 Mostly Sunny 83 28.3 56 13.3 40 40 NW 22 35 29.95 1014 10 16 0.00 0.00
3:53 pm 15:53 Mostly Cloudy 79 26.1 56 13.3 45 45 WNW 25 41 29.96 1014 10 16 0.00 0.00
4:53 pm 16:53 Partly Cloudy 75 23.9 56 13.3 52 52 WNW 14 22 29.95 1014 10 16 0.00 0.00
5:53 pm 17:53 Mostly Cloudy 71 21.7 57 13.9 61 61 WNW 5 7 29.95 1014 10 16 0.00 0.00
6:53 pm 18:53 Mostly Sunny 71 21.7 59 15 66 66 W 6 9 29.96 1015 10 16 0.00 0.03
7:53 pm 19:53 Clear 66 18.9 60 15.6 81 81 NW 3 6 29.99 1016 10 16 0.00 0.00
8:53 pm 20:53 Clear 64 17.8 60 15.6 87 87 Calm 30.00 1016 10 16 0.00 0.00
9:53 pm 21:53 Clear 62 16.7 60 15.6 93 93 N 7 11 29.99 1016 10 16 0.00 0.00
10:53 pm 22:53 Clear 59 15 58 14.4 96 96 W 3 6 29.98 1015 10 16 0.00 0.00
11:53 pm 23:53 Clear 58 14.4 58 14.4 100 100 Calm 29.97 1015 10 16 0.00 0.00

Powered by AerisWeather